KLM148 LIMN-OLBA

Flight info

Callsign KLM148
Flight time 2h 4m
Altitude 37000
Route DESIP DCT BAMEK DCT IBENI DCT UVODI DCT RINAV DCT TALAS UN130 MES UL609 RDS UM601 EVENO M601 LCA M31 KUKLA
Aircraft B77L/H-SDE1E2E3FGHIJ2J3J4J5M1RWXY/LB1D1

Departure

Time 2026-05-09 03:25
Airport Cameri Air Base (LIMN)

Arrival

Time 2026-05-09 05:29
Airport Beirut Rafic Hariri International Airport (OLBA)
Time Latitude Longitude Altitude Speed Heading
2026-05-09 03:13 45.54243 8.66876 595 ft 0 kts 321°
2026-05-09 03:22 45.54243 8.66875 595 ft 0 kts 321°
2026-05-09 03:23 45.54275 8.66803 596 ft 20 kts 276°
2026-05-09 03:23 45.54208 8.66637 596 ft 20 kts 231°
2026-05-09 03:23 45.54261 8.66542 596 ft 16 kts 350°
2026-05-09 03:23 45.54373 8.66539 598 ft 16 kts
2026-05-09 03:24 45.54416 8.66535 598 ft 2 kts 307°
2026-05-09 03:24 45.54387 8.66508 598 ft 10 kts 188°
2026-05-09 03:24 45.54334 8.66524 597 ft 3 kts 167°
2026-05-09 03:25 45.54333 8.66524 597 ft 2 kts 167°
2026-05-09 03:25 45.54101 8.66604 595 ft 85 kts 168°
2026-05-09 03:25 45.53148 8.66899 600 ft 191 kts 168°
2026-05-09 03:25 45.51791 8.67318 1503 ft 200 kts 168°
2026-05-09 03:26 45.50395 8.67764 2631 ft 217 kts 168°
2026-05-09 03:26 45.48811 8.68239 3066 ft 249 kts 168°
2026-05-09 03:26 45.47077 8.68875 3782 ft 263 kts 155°
2026-05-09 03:26 45.45550 8.70434 4256 ft 293 kts 136°
2026-05-09 03:27 45.44124 8.72784 4580 ft 329 kts 131°
2026-05-09 03:27 45.42644 8.75524 4851 ft 366 kts 129°
2026-05-09 03:27 45.41167 8.78718 5144 ft 402 kts 123°
2026-05-09 03:27 45.39707 8.82167 5877 ft 415 kts 122°
2026-05-09 03:28 45.38199 8.85775 6662 ft 431 kts 122°
2026-05-09 03:28 45.36633 8.89544 7283 ft 448 kts 121°
2026-05-09 03:28 45.35247 8.93490 8073 ft 457 kts 108°
2026-05-09 03:28 45.34112 8.97778 8855 ft 464 kts 97°
2026-05-09 03:29 45.33115 9.02153 9752 ft 470 kts 105°
2026-05-09 03:29 45.32126 9.06641 10512 ft 482 kts 105°
2026-05-09 03:29 45.31086 9.11238 10951 ft 506 kts 108°
2026-05-09 03:29 45.29835 9.16100 11129 ft 539 kts 112°
2026-05-09 03:30 45.28388 9.21211 11314 ft 571 kts 114°
2026-05-09 03:30 45.26821 9.26515 11429 ft 606 kts 113°
2026-05-09 03:30 45.25137 9.32174 11653 ft 636 kts 112°
2026-05-09 03:30 45.23979 9.36096 11842 ft 654 kts 112°
2026-05-09 03:31 45.21631 9.44140 12731 ft 672 kts 111°
2026-05-09 03:31 45.19849 9.50319 13674 ft 677 kts 111°
2026-05-09 03:31 45.18668 9.54436 14333 ft 679 kts 111°
2026-05-09 03:31 45.16886 9.60655 15319 ft 682 kts 111°
2026-05-09 03:32 45.15092 9.66911 16212 ft 687 kts 111°
2026-05-09 03:32 45.13279 9.73211 17037 ft 692 kts 111°
2026-05-09 03:32 45.11444 9.79555 17833 ft 698 kts 112°
2026-05-09 03:32 45.09585 9.85935 18630 ft 703 kts 112°
2026-05-09 03:33 45.07722 9.92287 19409 ft 707 kts 112°
2026-05-09 03:33 45.05822 9.98750 20169 ft 711 kts 112°
2026-05-09 03:33 45.03908 10.05251 20898 ft 716 kts 112°
2026-05-09 03:33 45.02005 10.11715 21599 ft 721 kts 112°
2026-05-09 03:34 45.00067 10.18289 22286 ft 725 kts 112°
2026-05-09 03:34 44.98116 10.24899 22954 ft 730 kts 112°
2026-05-09 03:34 44.96139 10.31577 23613 ft 734 kts 112°
2026-05-09 03:34 44.94184 10.38167 24249 ft 739 kts 112°
2026-05-09 03:35 44.92184 10.44887 24875 ft 743 kts 112°
2026-05-09 03:35 44.90173 10.51625 25479 ft 747 kts 112°
2026-05-09 03:35 44.88140 10.58415 26069 ft 751 kts 112°
2026-05-09 03:35 44.86095 10.65227 26639 ft 755 kts 113°
2026-05-09 03:36 44.84037 10.72064 27197 ft 759 kts 113°
2026-05-09 03:36 44.81982 10.78875 27722 ft 763 kts 113°
2026-05-09 03:36 44.79894 10.85775 28254 ft 766 kts 113°
2026-05-09 03:36 44.77815 10.92626 28755 ft 770 kts 113°
2026-05-09 03:37 44.75701 10.99571 29253 ft 774 kts 113°
2026-05-09 03:37 44.73564 11.06577 29730 ft 777 kts 113°
2026-05-09 03:37 44.71423 11.13577 30181 ft 780 kts 113°
2026-05-09 03:37 44.69270 11.20594 30594 ft 783 kts 114°
2026-05-09 03:38 44.67103 11.27641 31073 ft 784 kts 114°
2026-05-09 03:38 44.64964 11.34575 31606 ft 783 kts 114°
2026-05-09 03:38 44.62784 11.41624 32186 ft 781 kts 114°
2026-05-09 03:38 44.60618 11.48608 32754 ft 778 kts 114°
2026-05-09 03:39 44.58450 11.55583 33275 ft 777 kts 114°
2026-05-09 03:39 44.56312 11.62438 33727 ft 776 kts 114°
2026-05-09 03:39 44.54138 11.69392 34174 ft 776 kts 114°
2026-05-09 03:39 44.51963 11.76331 34613 ft 775 kts 114°
2026-05-09 03:40 44.49791 11.83240 35046 ft 774 kts 114°
2026-05-09 03:40 44.47610 11.90161 35472 ft 773 kts 114°
2026-05-09 03:40 44.45457 11.96975 35859 ft 772 kts 114°
2026-05-09 03:40 44.43273 12.03869 36254 ft 771 kts 114°
2026-05-09 03:41 44.41117 12.10655 36597 ft 771 kts 114°
2026-05-09 03:41 44.38929 12.17526 36897 ft 772 kts 115°
2026-05-09 03:41 44.36737 12.24389 37010 ft 776 kts 115°
2026-05-09 03:41 44.34526 12.31294 37008 ft 777 kts 115°
2026-05-09 03:42 44.30111 12.45031 37012 ft 781 kts 115°
2026-05-09 03:42 44.25605 12.58976 37019 ft 790 kts 115°
2026-05-09 03:43 44.21065 12.72950 37016 ft 798 kts 115°
2026-05-09 03:43 44.16435 12.87130 37012 ft 804 kts 115°
2026-05-09 03:44 44.11785 13.01295 37004 ft 806 kts 115°
2026-05-09 03:44 44.07099 13.15491 37000 ft 806 kts 116°
2026-05-09 03:45 44.02427 13.29574 36999 ft 806 kts 116°
2026-05-09 03:45 43.97709 13.43714 36999 ft 805 kts 116°
2026-05-09 03:46 43.92981 13.57814 36999 ft 804 kts 116°
2026-05-09 03:46 43.88278 13.71765 37000 ft 803 kts 116°
2026-05-09 03:47 43.83526 13.85786 37001 ft 802 kts 116°
2026-05-09 03:47 43.78761 13.99777 37001 ft 802 kts 116°
2026-05-09 03:48 43.74007 14.13661 37001 ft 801 kts 117°
2026-05-09 03:48 43.69205 14.27613 37002 ft 801 kts 117°
2026-05-09 03:49 43.64395 14.41518 37002 ft 802 kts 117°
2026-05-09 03:49 43.59567 14.55404 37002 ft 802 kts 117°
2026-05-09 03:50 43.54750 14.69188 37002 ft 802 kts 117°
2026-05-09 03:50 43.49882 14.83049 37002 ft 802 kts 117°
2026-05-09 03:51 43.44997 14.96889 37002 ft 802 kts 117°
2026-05-09 03:51 43.40123 15.10625 37002 ft 802 kts 118°
2026-05-09 03:52 43.35205 15.24419 37002 ft 802 kts 118°
2026-05-09 03:52 43.30288 15.38143 37001 ft 802 kts 118°
2026-05-09 03:53 43.25332 15.51905 37001 ft 802 kts 118°
2026-05-09 03:53 43.20394 15.65550 37001 ft 802 kts 118°
2026-05-09 03:54 43.15407 15.79263 37001 ft 802 kts 118°
2026-05-09 03:54 43.10437 15.92864 37001 ft 802 kts 118°
2026-05-09 03:55 43.05420 16.06525 37006 ft 802 kts 119°
2026-05-09 03:55 43.00415 16.20089 36992 ft 802 kts 119°
2026-05-09 03:56 42.95364 16.33711 37004 ft 801 kts 119°
2026-05-09 03:56 42.90307 16.47280 37000 ft 802 kts 119°
2026-05-09 03:57 42.85271 16.60733 37002 ft 801 kts 119°
2026-05-09 03:57 42.80170 16.74294 37002 ft 801 kts 120°
2026-05-09 03:58 42.75092 16.87729 36993 ft 801 kts 120°
2026-05-09 03:58 42.69961 17.01253 36965 ft 801 kts 120°
2026-05-09 03:59 42.68262 17.05710 36998 ft 800 kts 120°
2026-05-09 04:01 42.44482 17.67401 37001 ft 802 kts 121°
2026-05-09 04:01 42.39261 17.80771 37001 ft 802 kts 121°
2026-05-09 04:02 42.34060 17.94028 37001 ft 801 kts 121°
2026-05-09 04:02 42.28809 18.07354 37001 ft 801 kts 121°
2026-05-09 04:03 42.23552 18.20631 37001 ft 801 kts 121°
2026-05-09 04:03 42.18298 18.33843 37001 ft 801 kts 121°
2026-05-09 04:04 42.13006 18.47088 37001 ft 801 kts 121°
2026-05-09 04:04 42.07738 18.60214 37001 ft 801 kts 122°
2026-05-09 04:05 42.02429 18.73382 37001 ft 801 kts 122°
2026-05-09 04:05 41.97101 18.86538 37001 ft 800 kts 122°
2026-05-09 04:06 41.91739 18.99719 37001 ft 800 kts 122°
2026-05-09 04:06 41.86417 19.12744 37001 ft 800 kts 122°
2026-05-09 04:07 41.81047 19.25828 37001 ft 800 kts 122°
2026-05-09 04:07 41.75651 19.38918 37001 ft 800 kts 122°
2026-05-09 04:08 41.70278 19.51893 37001 ft 800 kts 122°
2026-05-09 04:08 41.64849 19.64946 37003 ft 800 kts 123°
2026-05-09 04:09 41.59446 19.77878 37016 ft 801 kts 123°
2026-05-09 04:09 41.53979 19.90906 36970 ft 805 kts 123°
2026-05-09 04:10 41.48473 20.03966 37005 ft 807 kts 123°
2026-05-09 04:10 41.42973 20.16962 37021 ft 806 kts 123°
2026-05-09 04:11 41.37443 20.29980 37006 ft 807 kts 123°
2026-05-09 04:11 41.31900 20.42962 37021 ft 812 kts 123°
2026-05-09 04:12 41.26282 20.56058 36998 ft 815 kts 124°
2026-05-09 04:12 41.20698 20.69035 36985 ft 807 kts 124°
2026-05-09 04:13 41.15150 20.81869 36993 ft 802 kts 124°
2026-05-09 04:13 41.09534 20.94784 36982 ft 809 kts 124°
2026-05-09 04:14 41.03920 21.07643 37013 ft 807 kts 124°
2026-05-09 04:14 40.98281 21.20513 37026 ft 815 kts 124°
2026-05-09 04:15 40.92545 21.33553 36985 ft 814 kts 124°
2026-05-09 04:15 40.86931 21.46286 36982 ft 799 kts 124°
2026-05-09 04:16 40.81303 21.58973 36996 ft 797 kts 125°
2026-05-09 04:16 40.75671 21.71591 36984 ft 804 kts 125°
2026-05-09 04:17 40.69989 21.84282 37002 ft 804 kts 125°
2026-05-09 04:17 40.64278 21.96999 36972 ft 806 kts 125°
2026-05-09 04:18 40.58579 22.09640 37023 ft 803 kts 125°
2026-05-09 04:18 40.52849 22.22293 37002 ft 801 kts 125°
2026-05-09 04:19 40.47135 22.34857 37013 ft 799 kts 126°
2026-05-09 04:19 40.41449 22.47303 37004 ft 798 kts 126°
2026-05-09 04:20 40.35742 22.59748 37006 ft 797 kts 126°
2026-05-09 04:20 40.29999 22.72220 37006 ft 797 kts 126°
2026-05-09 04:21 40.24267 22.84620 37000 ft 797 kts 126°
2026-05-09 04:22 40.15644 23.03180 37003 ft 797 kts 126°
2026-05-09 04:22 40.09858 23.15573 37002 ft 797 kts 126°
2026-05-09 04:23 40.04093 23.27874 37001 ft 797 kts 126°
2026-05-09 04:23 39.98272 23.40242 37004 ft 797 kts 127°
2026-05-09 04:24 39.92475 23.52512 36999 ft 798 kts 127°
2026-05-09 04:24 39.86637 23.64819 37000 ft 797 kts 127°
2026-05-09 04:25 39.80776 23.77129 37002 ft 797 kts 127°
2026-05-09 04:25 39.74940 23.89337 37001 ft 797 kts 127°
2026-05-09 04:26 39.69065 24.01578 37001 ft 797 kts 127°
2026-05-09 04:26 39.63208 24.13735 37003 ft 797 kts 127°
2026-05-09 04:27 39.57335 24.25878 37000 ft 797 kts 127°
2026-05-09 04:27 39.51426 24.38050 37002 ft 797 kts 128°
2026-05-09 04:28 39.45528 24.50151 37002 ft 797 kts 128°
2026-05-09 04:28 39.39587 24.62295 37001 ft 796 kts 128°
2026-05-09 04:29 39.33652 24.74380 37001 ft 796 kts 128°
2026-05-09 04:29 39.27736 24.86380 37001 ft 796 kts 128°
2026-05-09 04:30 39.21751 24.98476 37002 ft 796 kts 128°
2026-05-09 04:30 39.15806 25.10444 37001 ft 796 kts 128°
2026-05-09 04:31 39.09823 25.22442 37001 ft 796 kts 128°
2026-05-09 04:31 39.03819 25.34440 37001 ft 796 kts 128°
2026-05-09 04:32 38.97835 25.46354 37001 ft 796 kts 129°
2026-05-09 04:32 38.91802 25.58317 37001 ft 796 kts 129°
2026-05-09 04:33 38.85769 25.70240 37001 ft 795 kts 129°
2026-05-09 04:33 38.79730 25.82128 37001 ft 795 kts 129°
2026-05-09 04:34 38.73715 25.93927 37001 ft 795 kts 129°
2026-05-09 04:34 38.67641 26.05796 37001 ft 795 kts 129°
2026-05-09 04:35 38.61594 26.17570 37002 ft 795 kts 129°
2026-05-09 04:35 38.55489 26.29416 37002 ft 795 kts 129°
2026-05-09 04:36 38.50418 26.39220 37001 ft 795 kts 129°
2026-05-09 04:36 38.44298 26.51014 36997 ft 796 kts 130°
2026-05-09 04:37 38.38184 26.62752 37003 ft 796 kts 130°
2026-05-09 04:37 38.32043 26.74503 37012 ft 796 kts 130°
2026-05-09 04:38 38.25922 26.86174 37006 ft 796 kts 130°
2026-05-09 04:38 38.19746 26.97904 37003 ft 797 kts 130°
2026-05-09 04:39 38.13601 27.09538 36999 ft 794 kts 130°
2026-05-09 04:39 38.07415 27.21211 36990 ft 793 kts 130°
2026-05-09 04:40 38.01272 27.32753 37000 ft 793 kts 130°
2026-05-09 04:40 37.95063 27.44378 37008 ft 794 kts 130°
2026-05-09 04:41 37.88886 27.55904 37001 ft 795 kts 131°
2026-05-09 04:41 37.82648 27.67506 36993 ft 794 kts 131°
2026-05-09 04:42 37.76411 27.79068 37000 ft 794 kts 131°
2026-05-09 04:42 37.70213 27.90515 36998 ft 793 kts 131°
2026-05-09 04:43 37.63963 28.02016 37013 ft 792 kts 131°
2026-05-09 04:43 37.57704 28.13494 37009 ft 795 kts 131°
2026-05-09 04:44 37.51431 28.24952 37006 ft 799 kts 131°
2026-05-09 04:44 37.45087 28.36504 37008 ft 803 kts 131°
2026-05-09 04:45 37.38705 28.48090 37005 ft 805 kts 131°
2026-05-09 04:45 37.32308 28.59670 36976 ft 805 kts 131°
2026-05-09 04:46 37.25983 28.71085 36987 ft 797 kts 132°
2026-05-09 04:46 37.19637 28.82487 37029 ft 794 kts 132°
2026-05-09 04:47 37.13310 28.93798 37005 ft 798 kts 132°
2026-05-09 04:47 37.06875 29.05264 37015 ft 803 kts 132°
2026-05-09 04:48 37.00479 29.16647 37000 ft 800 kts 132°
2026-05-09 04:48 36.94065 29.28033 36995 ft 795 kts 132°
2026-05-09 04:49 36.87683 29.39301 37011 ft 800 kts 132°
2026-05-09 04:49 36.81248 29.50620 36991 ft 801 kts 133°
2026-05-09 04:50 36.74768 29.61985 36998 ft 802 kts 133°
2026-05-09 04:50 36.68306 29.73283 37007 ft 804 kts 132°
2026-05-09 04:51 36.61790 29.84647 36993 ft 805 kts 133°
2026-05-09 04:51 36.55305 29.95917 36995 ft 804 kts 133°
2026-05-09 04:52 36.48784 30.07210 36995 ft 801 kts 133°
2026-05-09 04:52 36.42311 30.18379 37012 ft 798 kts 133°
2026-05-09 04:53 36.35815 30.29552 36987 ft 793 kts 133°
2026-05-09 04:53 36.29378 30.40591 36983 ft 788 kts 134°
2026-05-09 04:54 36.22964 30.51539 37023 ft 790 kts 134°
2026-05-09 04:54 36.16479 30.62576 37003 ft 792 kts 134°
2026-05-09 04:55 36.09976 30.73619 37003 ft 793 kts 134°
2026-05-09 04:55 36.03498 30.84590 37000 ft 793 kts 134°
2026-05-09 04:56 35.96979 30.95591 37000 ft 792 kts 134°
2026-05-09 04:56 35.90454 31.06564 37001 ft 791 kts 134°
2026-05-09 04:57 35.83969 31.17435 37001 ft 790 kts 134°
2026-05-09 04:57 35.77441 31.28343 37000 ft 790 kts 134°
2026-05-09 04:58 35.70906 31.39229 37000 ft 789 kts 134°
2026-05-09 04:58 35.64358 31.50102 37002 ft 789 kts 134°
2026-05-09 04:59 35.57834 31.60902 37000 ft 789 kts 135°
2026-05-09 04:59 35.51319 31.71656 37001 ft 789 kts 135°
2026-05-09 05:00 35.44746 31.82473 37001 ft 789 kts 135°
2026-05-09 05:00 35.38182 31.93265 37002 ft 790 kts 133°
2026-05-09 05:01 35.32323 32.04723 37007 ft 800 kts 121°
2026-05-09 05:01 35.27485 32.17037 37007 ft 802 kts 112°
2026-05-09 05:02 35.23934 32.29863 37009 ft 799 kts 103°
2026-05-09 05:02 35.20729 32.42934 37005 ft 800 kts 103°
2026-05-09 05:03 35.17386 32.55862 37000 ft 801 kts 105°
2026-05-09 05:03 35.13892 32.68860 36995 ft 803 kts 105°
2026-05-09 05:04 35.10408 32.81851 37002 ft 803 kts 105°
2026-05-09 05:04 35.06968 32.94741 37005 ft 803 kts 105°
2026-05-09 05:05 35.03293 33.07650 37003 ft 804 kts 108°
2026-05-09 05:05 34.99547 33.20454 36989 ft 804 kts 107°
2026-05-09 05:06 34.95814 33.33338 36999 ft 804 kts 107°
2026-05-09 05:06 34.92115 33.46209 37003 ft 804 kts 107°
2026-05-09 05:07 34.88077 33.58844 37008 ft 803 kts 115°
2026-05-09 05:07 34.82924 33.70888 37004 ft 798 kts 126°
2026-05-09 05:07 34.79878 33.76462 36829 ft 772 kts 133°
2026-05-09 05:08 34.76770 33.81710 36105 ft 758 kts 134°
2026-05-09 05:08 34.73726 33.86877 34855 ft 758 kts 132°
2026-05-09 05:08 34.70749 33.92148 33697 ft 749 kts 131°
2026-05-09 05:08 34.67851 33.97369 32579 ft 739 kts 131°
2026-05-09 05:09 34.64985 34.02510 31479 ft 729 kts 132°
2026-05-09 05:09 34.62153 34.07536 30510 ft 706 kts 128°
2026-05-09 05:09 34.59477 34.12289 29540 ft 674 kts 129°
2026-05-09 05:09 34.56869 34.16918 28534 ft 650 kts 129°
2026-05-09 05:10 34.54350 34.21378 27527 ft 630 kts 129°
2026-05-09 05:10 34.51907 34.25690 26637 ft 604 kts 128°
2026-05-09 05:10 34.49602 34.29754 25795 ft 580 kts 128°
2026-05-09 05:10 34.47347 34.33726 25158 ft 557 kts 128°
2026-05-09 05:11 34.45185 34.37535 24551 ft 537 kts 129°
2026-05-09 05:11 34.43102 34.41218 24260 ft 510 kts 125°
2026-05-09 05:11 34.41234 34.44556 24029 ft 469 kts 124°
2026-05-09 05:11 34.39462 34.47733 23464 ft 437 kts 124°
2026-05-09 05:12 34.37834 34.50653 23238 ft 399 kts 124°
2026-05-09 05:12 34.36331 34.53343 22891 ft 372 kts 124°
2026-05-09 05:12 34.34927 34.55853 22309 ft 356 kts 124°
2026-05-09 05:12 34.33550 34.58310 21511 ft 347 kts 124°
2026-05-09 05:13 34.32195 34.60727 20592 ft 343 kts 124°
2026-05-09 05:13 34.30878 34.63075 19655 ft 340 kts 124°
2026-05-09 05:13 34.29554 34.65433 18744 ft 336 kts 124°
2026-05-09 05:13 34.28246 34.67762 17850 ft 331 kts 124°
2026-05-09 05:14 34.26974 34.70024 16957 ft 326 kts 124°
2026-05-09 05:14 34.25707 34.72275 16073 ft 322 kts 124°
2026-05-09 05:14 34.24396 34.74447 15163 ft 317 kts 133°
2026-05-09 05:14 34.22667 34.76052 14229 ft 313 kts 149°
2026-05-09 05:15 34.20795 34.77406 13781 ft 310 kts 149°
2026-05-09 05:15 34.18962 34.78719 13537 ft 303 kts 149°
2026-05-09 05:15 34.17183 34.79997 13280 ft 296 kts 149°
2026-05-09 05:15 34.15431 34.81264 13024 ft 290 kts 149°
2026-05-09 05:16 34.13704 34.82521 12804 ft 286 kts 149°
2026-05-09 05:16 34.12019 34.83750 12579 ft 287 kts 149°
2026-05-09 05:16 34.10277 34.85025 12355 ft 297 kts 149°
2026-05-09 05:16 34.08477 34.86345 12107 ft 305 kts 148°
2026-05-09 05:17 34.06678 34.87665 11846 ft 305 kts 148°
2026-05-09 05:17 34.04875 34.88989 11573 ft 299 kts 148°
2026-05-09 05:17 34.03108 34.90287 11309 ft 293 kts 148°
2026-05-09 05:17 34.01401 34.91540 11069 ft 286 kts 148°
2026-05-09 05:18 33.99717 34.92776 10812 ft 280 kts 148°
2026-05-09 05:18 33.98057 34.93994 10568 ft 277 kts 148°
2026-05-09 05:18 33.96424 34.95192 10348 ft 280 kts 148°
2026-05-09 05:18 33.94736 34.96430 10203 ft 286 kts 148°
2026-05-09 05:19 33.93037 34.97675 10082 ft 283 kts 148°
2026-05-09 05:19 33.91375 34.98893 9859 ft 276 kts 148°
2026-05-09 05:19 33.89752 35.00081 9609 ft 269 kts 148°
2026-05-09 05:19 33.88171 35.01239 9393 ft 262 kts 148°
2026-05-09 05:20 33.86622 35.02372 9169 ft 259 kts 148°
2026-05-09 05:20 33.85082 35.03498 8964 ft 260 kts 148°
2026-05-09 05:20 33.83524 35.04637 8754 ft 269 kts 148°
2026-05-09 05:20 33.81904 35.05821 8502 ft 273 kts 148°
2026-05-09 05:21 33.80282 35.07006 8245 ft 270 kts 148°
2026-05-09 05:21 33.78693 35.08166 7992 ft 263 kts 149°
2026-05-09 05:21 33.77220 35.09397 7506 ft 255 kts 132°
2026-05-09 05:21 33.76250 35.11140 6693 ft 258 kts 117°
2026-05-09 05:22 33.75453 35.13106 6191 ft 262 kts 115°
2026-05-09 05:22 33.74667 35.15085 5808 ft 261 kts 116°
2026-05-09 05:22 33.73869 35.17043 5440 ft 259 kts 116°
2026-05-09 05:22 33.73060 35.18975 5074 ft 257 kts 117°
2026-05-09 05:23 33.72520 35.20241 4857 ft 255 kts 117°
2026-05-09 05:23 33.71438 35.22749 4517 ft 255 kts 117°
2026-05-09 05:23 33.70891 35.24004 4344 ft 255 kts 117°
2026-05-09 05:23 33.70060 35.25902 4102 ft 256 kts 118°
2026-05-09 05:24 33.69227 35.27793 3845 ft 255 kts 118°
2026-05-09 05:24 33.68402 35.29660 3614 ft 247 kts 118°
2026-05-09 05:24 33.67650 35.31362 3474 ft 221 kts 118°
2026-05-09 05:24 33.66950 35.32943 3401 ft 206 kts 118°
2026-05-09 05:25 33.66291 35.34431 3386 ft 201 kts 118°
2026-05-09 05:25 33.65899 35.36007 3246 ft 197 kts 86°
2026-05-09 05:25 33.67441 35.38515 2953 ft 195 kts 33°
2026-05-09 05:26 33.68574 35.39377 2737 ft 193 kts 32°
2026-05-09 05:26 33.69694 35.40217 2498 ft 187 kts 32°
2026-05-09 05:26 33.70786 35.41039 2237 ft 182 kts 32°
2026-05-09 05:26 33.71830 35.41825 1988 ft 174 kts 32°
2026-05-09 05:27 33.72812 35.42564 1739 ft 160 kts 32°
2026-05-09 05:27 33.73757 35.43279 1559 ft 158 kts 32°
2026-05-09 05:27 33.74670 35.43972 1376 ft 151 kts 32°
2026-05-09 05:27 33.75513 35.44616 1184 ft 140 kts 33°
2026-05-09 05:28 33.76312 35.45275 988 ft 140 kts 34°
2026-05-09 05:28 33.77111 35.45945 753 ft 140 kts 35°
2026-05-09 05:28 33.77918 35.46607 488 ft 139 kts 33°
2026-05-09 05:28 33.78728 35.47230 270 ft 137 kts 32°
2026-05-09 05:29 33.79514 35.47844 158 ft 135 kts 32°
2026-05-09 05:29 33.80304 35.48451 102 ft 138 kts 33°
2026-05-09 05:29 33.81089 35.49056 53 ft 123 kts 33°
2026-05-09 05:29 33.81665 35.49507 56 ft 46 kts 33°
2026-05-09 05:30 33.81973 35.49589 60 ft 35 kts
2026-05-09 05:30 33.82202 35.49565 54 ft 32 kts 332°
2026-05-09 05:30 33.82320 35.49428 57 ft 11 kts 317°
2026-05-09 05:30 33.82322 35.49426 58 ft 0 kts 317°